Pontiac, IL

7:48 PM CDT on October 17, 2017 (GMT -0500)
Pontiac Municipal

Weather History for KPNT - November, 2012

Change the Weather History Date:

Saturday, November 24, 2012

  Actual Average Record
Temperature  
Mean Temperature 30 °F -  
Max Temperature 35 °F 46 °F 68 °F (1931)
Min Temperature 26 °F 28 °F -4 °F (1950)
Degree Days  
Heating Degree Days 34    
Moisture  
Dew Point 20 °F    
Average Humidity 67    
Maximum Humidity 75    
Minimum Humidity 52    
Precipitation  
Precipitation 0.00 in - - ()
Sea Level Pressure  
Sea Level Pressure 30.18 in    
Wind  
Wind Speed 8 mph (WSW)    
Max Wind Speed 13 mph    
Max Gust Speed 17 mph    
Visibility 10 miles    
Events      
Averages and records for this station are not official NWS values.
T = Trace of Precipitation, MM = Missing Value Source: NWS Daily Summary

Daily Weather History Graph

Daily Weather History Graph

Search for Another Location

Airport or City:

Trip Planner

Search our weather history database for the weather conditions in past years. The results will help you decide how hot, cold, wet, or windy it might be!

Date:

Astronomy

Nov. 24, 2012 Rise Set
Actual Time 6:52 AM CST 4:29 PM CST
Civil Twilight 6:22 AM CST 4:59 PM CST
Nautical Twilight 5:48 AM CST 5:33 PM CST
Astronomical Twilight 5:16 AM CST 6:06 PM CST
Moon 2:15 PM CST (11/24) 3:08 AM CST (11/24)
Length of Visible Light 10h 37m
Length of Day
9h 36m
Waxing Gibbous, 87% of the Moon is Illuminated
Nov 24
Waxing Gibbous
Nov 28
Full
Dec 6
Last Quarter
Dec 13
New
Dec 19
First Quarter

Hourly Weather History & Observations

Time (CST) Temp. Windchill Dew Point Humidity Pressure Visibility Wind Dir Wind Speed Gust Speed Precip Events Conditions
12:15 AM 26.6 °F 16.2 °F 19.4 °F 74% 30.24 in 10.0 mi WNW 11.5 mph - N/A   Overcast
12:35 AM 26.6 °F 17.5 °F 19.4 °F 74% 30.24 in 10.0 mi WNW 9.2 mph - N/A   Overcast
12:55 AM 26.6 °F 18.2 °F 19.4 °F 74% 30.24 in 10.0 mi WNW 8.1 mph - N/A   Overcast
1:15 AM 26.6 °F 17.5 °F 19.4 °F 74% 30.24 in 10.0 mi WNW 9.2 mph - N/A   Overcast
1:35 AM 26.6 °F 16.8 °F 19.4 °F 74% 30.24 in 10.0 mi WNW 10.4 mph - N/A   Overcast
1:55 AM 26.6 °F 18.2 °F 19.4 °F 74% 30.24 in 10.0 mi WNW 8.1 mph - N/A   Overcast
2:15 AM 26.6 °F 16.8 °F 19.4 °F 74% 30.25 in 10.0 mi WNW 10.4 mph - N/A   Overcast
2:35 AM 26.6 °F 16.8 °F 19.4 °F 74% 30.25 in 10.0 mi WNW 10.4 mph - N/A   Overcast
2:55 AM 26.6 °F 17.5 °F 19.4 °F 74% 30.25 in 10.0 mi WNW 9.2 mph - N/A   Overcast
3:15 AM 26.6 °F 17.5 °F 19.4 °F 74% 30.25 in 10.0 mi WNW 9.2 mph - N/A   Overcast
3:35 AM 26.6 °F 18.2 °F 19.4 °F 74% 30.24 in 10.0 mi NW 8.1 mph - N/A   Overcast
3:55 AM 26.6 °F 18.2 °F 19.4 °F 74% 30.24 in 10.0 mi WNW 8.1 mph - N/A   Overcast
4:15 AM 26.6 °F 18.2 °F 19.4 °F 74% 30.24 in 10.0 mi WNW 8.1 mph - N/A   Overcast
4:35 AM 26.6 °F 17.5 °F 19.4 °F 74% 30.25 in 10.0 mi West 9.2 mph - N/A   Overcast
4:55 AM 26.6 °F 17.5 °F 19.4 °F 74% 30.25 in 10.0 mi WNW 9.2 mph - N/A   Overcast
5:15 AM 26.6 °F 18.2 °F 19.4 °F 74% 30.25 in 10.0 mi NW 8.1 mph - N/A   Overcast
5:35 AM 26.6 °F 19.1 °F 19.4 °F 74% 30.25 in 10.0 mi NW 6.9 mph - N/A   Overcast
5:55 AM 26.6 °F 16.2 °F 17.6 °F 69% 30.25 in 10.0 mi North 11.5 mph - N/A   Overcast
6:15 AM 26.6 °F 19.1 °F 17.6 °F 69% 30.26 in 10.0 mi North 6.9 mph - N/A   Overcast
6:35 AM 26.6 °F 18.2 °F 17.6 °F 69% 30.25 in 10.0 mi North 8.1 mph - N/A   Overcast
6:55 AM 26.6 °F 18.2 °F 17.6 °F 69% 30.26 in 10.0 mi North 8.1 mph - N/A   Overcast
7:15 AM 26.6 °F 19.1 °F 17.6 °F 69% 30.26 in 10.0 mi NNW 6.9 mph - N/A   Overcast
7:35 AM 26.6 °F 20.0 °F 17.6 °F 69% 30.26 in 10.0 mi NNW 5.8 mph - N/A   Overcast
7:55 AM 26.6 °F 18.2 °F 17.6 °F 69% 30.27 in 10.0 mi NW 8.1 mph - N/A   Overcast
8:15 AM 26.6 °F 19.1 °F 17.6 °F 69% 30.27 in 10.0 mi NNW 6.9 mph - N/A   Overcast
8:35 AM 26.6 °F 20.0 °F 17.6 °F 69% 30.27 in 10.0 mi NNW 5.8 mph - N/A   Overcast
8:55 AM 28.4 °F 21.2 °F 17.6 °F 64% 30.28 in 10.0 mi WNW 6.9 mph - N/A   Overcast
9:15 AM 28.4 °F 22.2 °F 17.6 °F 64% 30.28 in 10.0 mi WNW 5.8 mph - N/A   Overcast
9:35 AM 28.4 °F - 17.6 °F 64% 30.29 in 10.0 mi Calm Calm - N/A   Overcast
9:55 AM 28.4 °F - 17.6 °F 64% 30.28 in 10.0 mi Calm Calm - N/A   Overcast
10:15 AM 28.4 °F 23.3 °F 19.4 °F 69% 30.28 in 10.0 mi West 4.6 mph - N/A   Overcast
10:35 AM 28.4 °F 23.3 °F 19.4 °F 69% 30.28 in 10.0 mi West 4.6 mph - N/A   Overcast
10:55 AM 28.4 °F 21.2 °F 19.4 °F 69% 30.27 in 10.0 mi West 6.9 mph - N/A   Overcast
11:15 AM 28.4 °F - 19.4 °F 69% 30.26 in 10.0 mi Calm Calm - N/A   Overcast
11:35 AM 30.2 °F 25.4 °F 19.4 °F 64% 30.25 in 10.0 mi West 4.6 mph - N/A   Mostly Cloudy
11:55 AM 28.4 °F - 19.4 °F 69% 30.25 in 10.0 mi Calm Calm - N/A   Scattered Clouds
12:15 PM 30.2 °F 23.4 °F 19.4 °F 64% 30.23 in 10.0 mi WSW 6.9 mph - N/A   Scattered Clouds
12:35 PM 32.0 °F 26.4 °F 19.4 °F 60% 30.22 in 10.0 mi West 5.8 mph - N/A   Clear
12:55 PM 32.0 °F 27.5 °F 19.4 °F 60% 30.21 in 10.0 mi SW 4.6 mph - N/A   Clear
1:15 PM 33.8 °F 27.0 °F 19.4 °F 56% 30.20 in 10.0 mi WSW 8.1 mph - N/A   Clear
1:35 PM 33.8 °F 29.6 °F 19.4 °F 56% 30.19 in 10.0 mi West 4.6 mph - N/A   Clear
1:55 PM 35.6 °F 30.7 °F 19.4 °F 52% 30.19 in 10.0 mi WSW 5.8 mph - N/A   Clear
2:15 PM 35.6 °F 29.2 °F 19.4 °F 52% 30.17 in 10.0 mi West 8.1 mph - N/A   Clear
2:35 PM 35.6 °F 30.7 °F 19.4 °F 52% 30.16 in 10.0 mi WSW 5.8 mph - N/A   Clear
2:55 PM 35.6 °F 28.6 °F 19.4 °F 52% 30.16 in 10.0 mi SW 9.2 mph - N/A   Clear
3:15 PM 35.6 °F 29.2 °F 19.4 °F 52% 30.15 in 10.0 mi WSW 8.1 mph - N/A   Clear
3:35 PM 35.6 °F 28.0 °F 19.4 °F 52% 30.15 in 10.0 mi SSW 10.4 mph - N/A   Clear
3:55 PM 33.8 °F 27.0 °F 19.4 °F 56% 30.15 in 10.0 mi SSW 8.1 mph - N/A   Clear
4:15 PM 33.8 °F 27.0 °F 21.2 °F 60% 30.14 in 10.0 mi SSW 8.1 mph - N/A   Clear
4:35 PM 32.0 °F 23.0 °F 21.2 °F 64% 30.14 in 10.0 mi SSW 11.5 mph - N/A   Clear
4:55 PM 32.0 °F 24.8 °F 21.2 °F 64% 30.13 in 10.0 mi SW 8.1 mph - N/A   Mostly Cloudy
5:15 PM 32.0 °F 25.6 °F 21.2 °F 64% 30.13 in 10.0 mi SW 6.9 mph - N/A   Mostly Cloudy
5:35 PM 30.2 °F 24.3 °F 21.2 °F 69% 30.12 in 10.0 mi SSW 5.8 mph - N/A   Scattered Clouds
5:55 PM 30.2 °F 23.4 °F 21.2 °F 69% 30.12 in 10.0 mi SSW 6.9 mph - N/A   Scattered Clouds
6:15 PM 32.0 °F 24.8 °F 21.2 °F 64% 30.11 in 10.0 mi South 8.1 mph - N/A   Clear
6:35 PM 30.2 °F 21.9 °F 21.2 °F 69% 30.10 in 10.0 mi South 9.2 mph - N/A   Clear
6:55 PM 32.0 °F 24.8 °F 21.2 °F 64% 30.09 in 10.0 mi South 8.1 mph - N/A   Clear
7:15 PM 30.2 °F 21.9 °F 21.2 °F 69% 30.08 in 10.0 mi South 9.2 mph - N/A   Clear
7:35 PM 30.2 °F 21.9 °F 21.2 °F 69% 30.07 in 10.0 mi South 9.2 mph - N/A   Clear
7:55 PM 30.2 °F 22.6 °F 21.2 °F 69% 30.06 in 10.0 mi South 8.1 mph - N/A   Clear
8:15 PM 30.2 °F 21.9 °F 21.2 °F 69% 30.05 in 10.0 mi South 9.2 mph - N/A   Clear
8:35 PM 30.2 °F 21.3 °F 21.2 °F 69% 30.04 in 10.0 mi South 10.4 mph - N/A   Clear
8:55 PM 30.2 °F 21.9 °F 23.0 °F 75% 30.03 in 10.0 mi South 9.2 mph - N/A   Clear
9:15 PM 32.0 °F 23.0 °F 23.0 °F 69% 30.04 in 10.0 mi South 11.5 mph - N/A   Scattered Clouds
9:35 PM 32.0 °F 24.2 °F 23.0 °F 69% 30.04 in 10.0 mi SSW 9.2 mph - N/A   Scattered Clouds
9:55 PM 32.0 °F 24.2 °F 23.0 °F 69% 30.03 in 10.0 mi South 9.2 mph - N/A   Clear
10:15 PM 32.0 °F 23.6 °F 23.0 °F 69% 30.03 in 10.0 mi South 10.4 mph - N/A   Clear
10:35 PM 32.0 °F 23.0 °F 23.0 °F 69% 30.02 in 10.0 mi South 11.5 mph 17.3 mph N/A   Clear
10:55 PM 32.0 °F 23.0 °F 24.8 °F 75% 30.01 in 10.0 mi South 11.5 mph - N/A   Scattered Clouds
11:15 PM 33.8 °F 24.8 °F 24.8 °F 70% 30.01 in 10.0 mi South 12.7 mph - N/A   Clear
11:35 PM 32.0 °F 22.5 °F 24.8 °F 75% 30.00 in 10.0 mi South 12.7 mph 16.1 mph N/A   Scattered Clouds
11:55 PM 33.8 °F 25.3 °F 24.8 °F 70% 30.00 in 10.0 mi South 11.5 mph - N/A   Scattered Clouds